| time (UTC) | temp F | wind direction | speed MPH | gust MPH | rain 1hr in | rain 24hr in | rain mn in | humidity % | barometer mb |
| 20260902005445 | 81 | 207 | 5.0 | 7.0 | 0.00 | 0.00 | 0.00 | 26 | 1003.9 |
| 20260902004942 | 82 | 159 | 4.0 | 5.0 | 0.00 | 0.00 | 0.00 | 27 | 1003.9 |
| 20260902004441 | 82 | 168 | 4.0 | 5.0 | 0.00 | 0.00 | 0.00 | 25 | 1003.9 |
| 20260902003936 | 82 | 172 | 5.0 | 6.0 | 0.00 | 0.00 | 0.00 | 26 | 1004.2 |
| 20260902003436 | 82 | 137 | 3.0 | 3.0 | 0.00 | 0.00 | 0.00 | 27 | 1004.2 |
| 20260902002932 | 82 | 135 | 4.0 | 5.0 | 0.00 | 0.00 | 0.00 | 26 | 1004.4 |
| 20260902002427 | 82 | 140 | 5.0 | 6.0 | 0.00 | 0.00 | 0.00 | 26 | 1004.3 |
| 20260902001926 | 82 | 160 | 3.0 | 5.0 | 0.00 | 0.00 | 0.00 | 25 | 1004.4 |
| 20260902001421 | 82 | 191 | 4.0 | 6.0 | 0.00 | 0.00 | 0.00 | 25 | 1004.0 |
| 20260902000916 | 82 | 139 | 5.0 | 6.0 | 0.00 | 0.00 | 0.00 | 26 | 1004.1 |
| 20260902000414 | 82 | 145 | 3.0 | 3.0 | 0.00 | 0.00 | 0.00 | 25 | 1004.2 |
| 20260901235906 | 82 | 184 | 4.0 | 5.0 | 0.00 | 0.00 | 0.00 | 27 | 1004.4 |
| 20260901235401 | 82 | 182 | 9.0 | 10.0 | 0.00 | 0.00 | 0.00 | 26 | 1004.3 |
| 20260901234856 | 83 | 172 | 6.0 | 7.0 | 0.00 | 0.00 | 0.00 | 28 | 1004.3 |
| 20260901234350 | 82 | 126 | 3.0 | 3.0 | 0.00 | 0.00 | 0.00 | 28 | 1004.3 |
| 20260901233845 | 82 | 158 | 6.0 | 7.0 | 0.00 | 0.00 | 0.00 | 26 | 1004.3 |
| 20260901233341 | 82 | 152 | 6.0 | 7.0 | 0.00 | 0.00 | 0.00 | 27 | 1004.5 |
| 20260901232836 | 83 | 143 | 4.0 | 5.0 | 0.00 | 0.00 | 0.00 | 27 | 1004.3 |
| 20260901232331 | 82 | 158 | 3.0 | 3.0 | 0.00 | 0.00 | 0.00 | 28 | 1004.5 |
| 20260901231827 | 83 | 159 | 6.0 | 7.0 | 0.00 | 0.00 | 0.00 | 27 | 1004.4 |
| 20260901231323 | 83 | 166 | 5.0 | 6.0 | 0.00 | 0.00 | 0.00 | 27 | 1004.6 |
| 20260901230820 | 82 | 78 | 3.0 | 3.0 | 0.00 | 0.00 | 0.00 | 27 | 1004.7 |
| 20260901230319 | 83 | 133 | 8.0 | 9.0 | 0.00 | 0.00 | 0.00 | 27 | 1004.7 |
| 20260901225815 | 82 | 110 | 5.0 | 6.0 | 0.00 | 0.00 | 0.00 | 27 | 1004.6 |
| 20260901225314 | 82 | 103 | 9.0 | 9.0 | 0.00 | 0.00 | 0.00 | 27 | 1004.7 |
| 20260901224809 | 83 | 132 | 6.0 | 9.0 | 0.00 | 0.00 | 0.00 | 28 | 1004.9 |
| 20260901224306 | 83 | 148 | 3.0 | 3.0 | 0.00 | 0.00 | 0.00 | 27 | 1004.7 |
| 20260901223801 | 83 | 162 | 7.0 | 9.0 | 0.00 | 0.00 | 0.00 | 27 | 1004.9 |
| 20260901223256 | 83 | 175 | 6.0 | 7.0 | 0.00 | 0.00 | 0.00 | 27 | 1004.8 |
| 20260901222752 | 82 | 151 | 5.0 | 6.0 | 0.00 | 0.00 | 0.00 | 28 | 1004.9 |
| 20260901222248 | 82 | 138 | 6.0 | 7.0 | 0.00 | 0.00 | 0.00 | 27 | 1004.8 |
| 20260901221744 | 83 | 160 | 6.0 | 8.0 | 0.00 | 0.00 | 0.00 | 28 | 1005.1 |
| 20260901221239 | 83 | 168 | 7.0 | 7.0 | 0.00 | 0.00 | 0.00 | 27 | 1005.2 |
| 20260901220738 | 84 | 127 | 3.0 | 3.0 | 0.00 | 0.00 | 0.00 | 28 | 1005.3 |
| 20260901220232 | 85 | 99 | 2.0 | 2.0 | 0.00 | 0.00 | 0.00 | 27 | 1005.3 |
| 20260901215731 | 85 | 158 | 2.0 | 2.0 | 0.00 | 0.00 | 0.00 | 26 | 1005.3 |
| 20260901215232 | 84 | 208 | 3.0 | 3.0 | 0.00 | 0.00 | 0.00 | 27 | 1005.4 |
| 20260901214730 | 83 | 110 | 2.0 | 2.0 | 0.00 | 0.00 | 0.00 | 27 | 1005.6 |
| 20260901214224 | 81 | 136 | 0.0 | 0.0 | 0.00 | 0.00 | 0.00 | 30 | 1005.4 |
| 20260901213724 | 81 | 149 | 2.0 | 2.0 | 0.00 | 0.00 | 0.00 | 29 | 1005.6 |
| 20260901213224 | 82 | 158 | 6.0 | 8.0 | 0.00 | 0.00 | 0.00 | 29 | 1005.7 |
| 20260901212723 | 83 | 127 | 2.0 | 2.0 | 0.00 | 0.00 | 0.00 | 28 | 1005.9 |
| 20260901212220 | 82 | 163 | 1.0 | 1.0 | 0.00 | 0.00 | 0.00 | 27 | 1005.8 |
| 20260901211720 | 80 | 155 | 1.0 | 2.0 | 0.00 | 0.00 | 0.00 | 30 | 1005.8 |
| 20260901211216 | 80 | 216 | 3.0 | 3.0 | 0.00 | 0.00 | 0.00 | 30 | 1005.9 |
| 20260901210712 | 82 | 136 | 3.0 | 3.0 | 0.00 | 0.00 | 0.00 | 29 | 1006.1 |
| 20260901210207 | 81 | 203 | 3.0 | 3.0 | 0.00 | 0.00 | 0.00 | 29 | 1006.3 |
| 20260901205703 | 80 | 186 | 6.0 | 7.0 | 0.00 | 0.00 | 0.00 | 30 | 1006.0 |
| 20260901205157 | 80 | 196 | 4.0 | 5.0 | 0.00 | 0.00 | 0.00 | 31 | 1006.4 |
| 20260901204653 | 80 | 188 | 3.0 | 3.0 | 0.00 | 0.00 | 0.00 | 30 | 1006.4 |
| 20260901204149 | 80 | 168 | 0.0 | 1.0 | 0.00 | 0.00 | 0.00 | 32 | 1006.4 |
| 20260901203649 | 80 | 179 | 3.0 | 3.0 | 0.00 | 0.00 | 0.00 | 30 | 1006.3 |
| 20260901203144 | 80 | 189 | 5.0 | 6.0 | 0.00 | 0.00 | 0.00 | 29 | 1006.4 |
| 20260901202643 | 79 | 185 | 3.0 | 3.0 | 0.00 | 0.00 | 0.00 | 30 | 1006.5 |
| 20260901202139 | 79 | 165 | 5.0 | 7.0 | 0.00 | 0.00 | 0.00 | 29 | 1006.4 |
| 20260901201635 | 79 | 129 | 4.0 | 5.0 | 0.00 | 0.00 | 0.00 | 29 | 1006.5 |
| 20260901201134 | 78 | 157 | 8.0 | 10.0 | 0.00 | 0.00 | 0.00 | 30 | 1006.6 |
| 20260901200634 | 78 | 201 | 5.0 | 6.0 | 0.00 | 0.00 | 0.00 | 31 | 1006.6 |
| 20260901200129 | 79 | 132 | 4.0 | 5.0 | 0.00 | 0.00 | 0.00 | 29 | 1006.6 |
| 20260901195627 | 79 | 169 | 10.0 | 11.0 | 0.00 | 0.00 | 0.00 | 31 | 1006.5 |
| 20260901195127 | 78 | 127 | 7.0 | 8.0 | 0.00 | 0.00 | 0.00 | 31 | 1006.7 |
| 20260901194622 | 78 | 223 | 9.0 | 14.0 | 0.00 | 0.00 | 0.00 | 31 | 1006.6 |
| 20260901194117 | 78 | 168 | 7.0 | 8.0 | 0.00 | 0.00 | 0.00 | 31 | 1007.1 |
| 20260901193613 | 78 | 156 | 7.0 | 9.0 | 0.00 | 0.00 | 0.00 | 31 | 1006.9 |
| 20260901193107 | 78 | 116 | 8.0 | 10.0 | 0.00 | 0.00 | 0.00 | 32 | 1006.7 |
| 20260901192602 | 77 | 161 | 8.0 | 10.0 | 0.00 | 0.00 | 0.00 | 34 | 1006.9 |
| 20260901192057 | 77 | 181 | 5.0 | 9.0 | 0.00 | 0.00 | 0.00 | 33 | 1007.0 |
| 20260901191553 | 77 | 164 | 7.0 | 8.0 | 0.00 | 0.00 | 0.00 | 35 | 1007.0 |
| 20260901191050 | 77 | 139 | 8.0 | 11.0 | 0.00 | 0.00 | 0.00 | 34 | 1007.2 |
| 20260901190545 | 76 | 184 | 7.0 | 9.0 | 0.00 | 0.00 | 0.00 | 34 | 1007.3 |
| 20260901190043 | 76 | 137 | 6.0 | 9.0 | 0.00 | 0.00 | 0.00 | 34 | 1007.2 |
| 20260901185537 | 76 | 114 | 10.0 | 14.0 | 0.00 | 0.00 | 0.00 | 34 | 1007.5 |
| 20260901185036 | 76 | 121 | 8.0 | 9.0 | 0.00 | 0.00 | 0.00 | 34 | 1007.5 |
| 20260901184531 | 76 | 137 | 7.0 | 8.0 | 0.00 | 0.00 | 0.00 | 33 | 1007.5 |
| 20260901184026 | 76 | 113 | 10.0 | 11.0 | 0.00 | 0.00 | 0.00 | 35 | 1007.6 |
| 20260901183521 | 75 | 151 | 8.0 | 11.0 | 0.00 | 0.00 | 0.00 | 36 | 1007.5 |
| 20260901183016 | 75 | 129 | 9.0 | 10.0 | 0.00 | 0.00 | 0.00 | 36 | 1007.8 |
| 20260901182512 | 75 | 147 | 5.0 | 7.0 | 0.00 | 0.00 | 0.00 | 37 | 1007.8 |
| 20260901182007 | 74 | 122 | 8.0 | 9.0 | 0.00 | 0.00 | 0.00 | 37 | 1007.9 |
| 20260901181507 | 74 | 130 | 8.0 | 10.0 | 0.00 | 0.00 | 0.00 | 37 | 1007.9 |
| 20260901181006 | 74 | 130 | 11.0 | 14.0 | 0.00 | 0.00 | 0.00 | 37 | 1008.0 |
| 20260901180505 | 73 | 130 | 8.0 | 9.0 | 0.00 | 0.00 | 0.00 | 39 | 1007.8 |
| 20260901180004 | 73 | 158 | 9.0 | 11.0 | 0.00 | 0.00 | 0.00 | 39 | 1008.1 |
| 20260901175459 | 73 | 99 | 10.0 | 11.0 | 0.00 | 0.00 | 0.00 | 38 | 1007.9 |
| 20260901174953 | 73 | 114 | 7.0 | 9.0 | 0.00 | 0.00 | 0.00 | 39 | 1008.3 |
| 20260901174449 | 72 | 166 | 8.0 | 10.0 | 0.00 | 0.00 | 0.00 | 39 | 1008.2 |
| 20260901173945 | 72 | 175 | 9.0 | 13.0 | 0.00 | 0.00 | 0.00 | 39 | 1008.2 |
| 20260901173440 | 72 | 114 | 9.0 | 10.0 | 0.00 | 0.00 | 0.00 | 39 | 1008.3 |
| 20260901172936 | 72 | 102 | 12.0 | 16.0 | 0.00 | 0.00 | 0.00 | 38 | 1008.3 |
| 20260901172431 | 72 | 161 | 10.0 | 13.0 | 0.00 | 0.00 | 0.00 | 39 | 1008.4 |
| 20260901171929 | 71 | 117 | 10.0 | 13.0 | 0.00 | 0.00 | 0.00 | 41 | 1008.4 |
| 20260901171427 | 71 | 184 | 11.0 | 14.0 | 0.00 | 0.00 | 0.00 | 40 | 1008.4 |
| 20260901170926 | 71 | 135 | 14.0 | 17.0 | 0.00 | 0.00 | 0.00 | 40 | 1008.3 |
| 20260901170422 | 71 | 165 | 11.0 | 13.0 | 0.00 | 0.00 | 0.00 | 41 | 1008.6 |
| 20260901165915 | 71 | 139 | 6.0 | 10.0 | 0.00 | 0.00 | 0.00 | 42 | 1008.6 |
| 20260901165410 | 70 | 169 | 10.0 | 11.0 | 0.00 | 0.00 | 0.00 | 42 | 1008.6 |
| 20260901164906 | 70 | 150 | 14.0 | 15.0 | 0.00 | 0.00 | 0.00 | 42 | 1008.2 |
| 20260901164407 | 69 | 156 | 9.0 | 10.0 | 0.00 | 0.00 | 0.00 | 43 | 1008.6 |
| 20260901163901 | 69 | 123 | 10.0 | 14.0 | 0.00 | 0.00 | 0.00 | 43 | 1008.3 |
| 20260901163356 | 69 | 142 | 14.0 | 15.0 | 0.00 | 0.00 | 0.00 | 43 | 1008.6 |
| 20260901162851 | 69 | 148 | 11.0 | 14.0 | 0.00 | 0.00 | 0.00 | 44 | 1008.8 |
| 20260901162349 | 69 | 153 | 10.0 | 13.0 | 0.00 | 0.00 | 0.00 | 44 | 1008.6 |
| 20260901161844 | 68 | 124 | 13.0 | 15.0 | 0.00 | 0.00 | 0.00 | 46 | 1008.7 |
| 20260901161338 | 67 | 144 | 8.0 | 9.0 | 0.00 | 0.00 | 0.00 | 47 | 1008.6 |
| 20260901160833 | 67 | 125 | 13.0 | 14.0 | 0.00 | 0.00 | 0.00 | 46 | 1008.9 |
| 20260901160330 | 67 | 112 | 18.0 | 23.0 | 0.00 | 0.00 | 0.00 | 46 | 1008.9 |
| 20260901155829 | 66 | 113 | 11.0 | 13.0 | 0.00 | 0.00 | 0.00 | 48 | 1008.7 |
| 20260901155324 | 65 | 122 | 14.0 | 16.0 | 0.00 | 0.00 | 0.00 | 48 | 1008.8 |
| 20260901154821 | 65 | 134 | 14.0 | 16.0 | 0.00 | 0.00 | 0.00 | 48 | 1008.8 |
| 20260901154319 | 65 | 115 | 12.0 | 14.0 | 0.00 | 0.00 | 0.00 | 49 | 1009.1 |
| 20260901153814 | 65 | 142 | 14.0 | 15.0 | 0.00 | 0.00 | 0.00 | 49 | 1008.8 |
| 20260901153314 | 64 | 138 | 11.0 | 11.0 | 0.00 | 0.00 | 0.00 | 51 | 1008.6 |
| 20260901152813 | 64 | 148 | 7.0 | 8.0 | 0.00 | 0.00 | 0.00 | 53 | 1009.2 |
| 20260901152312 | 64 | 123 | 12.0 | 14.0 | 0.00 | 0.00 | 0.00 | 52 | 1009.1 |
| 20260901151808 | 63 | 137 | 8.0 | 9.0 | 0.00 | 0.00 | 0.00 | 54 | 1009.2 |
| 20260901151302 | 62 | 125 | 6.0 | 7.0 | 0.00 | 0.00 | 0.00 | 55 | 1009.0 |
| 20260901150802 | 61 | 137 | 5.0 | 6.0 | 0.00 | 0.00 | 0.00 | 56 | 1009.3 |
| 20260901150300 | 61 | 129 | 5.0 | 6.0 | 0.00 | 0.00 | 0.00 | 58 | 1009.2 |
| 20260901145757 | 61 | 127 | 3.0 | 5.0 | 0.00 | 0.00 | 0.00 | 58 | 1009.3 |
| 20260901145251 | 61 | 134 | 5.0 | 6.0 | 0.00 | 0.00 | 0.00 | 58 | 1009.5 |
| 20260901144747 | 61 | 123 | 3.0 | 5.0 | 0.00 | 0.00 | 0.00 | 59 | 1009.3 |
| 20260901144243 | 61 | 151 | 4.0 | 5.0 | 0.00 | 0.00 | 0.00 | 58 | 1009.6 |
| 20260901143738 | 60 | 117 | 3.0 | 3.0 | 0.00 | 0.00 | 0.00 | 60 | 1009.2 |
| 20260901143234 | 60 | 139 | 3.0 | 3.0 | 0.00 | 0.00 | 0.00 | 61 | 1009.1 |
| 20260901142730 | 59 | 130 | 2.0 | 2.0 | 0.00 | 0.00 | 0.00 | 63 | 1009.3 |
| 20260901142229 | 60 | 126 | 1.0 | 1.0 | 0.00 | 0.00 | 0.00 | 66 | 1009.3 |
| 20260901141724 | 60 | 123 | 1.0 | 1.0 | 0.00 | 0.00 | 0.00 | 64 | 1009.3 |
| 20260901141219 | 59 | 122 | 0.0 | 0.0 | 0.00 | 0.00 | 0.00 | 67 | 1009.1 |
| 20260901140718 | 58 | 122 | 0.0 | 0.0 | 0.00 | 0.00 | 0.00 | 69 | 1009.3 |
| 20260901140216 | 57 | 123 | 0.0 | 0.0 | 0.00 | 0.00 | 0.00 | 72 | 1008.9 |
| 20260901135712 | 56 | 119 | 0.0 | 0.0 | 0.00 | 0.00 | 0.00 | 73 | 1009.1 |
| 20260901135206 | 55 | 117 | 0.0 | 0.0 | 0.00 | 0.00 | 0.00 | 74 | 1009.0 |
| 20260901134702 | 54 | 116 | 0.0 | 1.0 | 0.00 | 0.00 | 0.00 | 76 | 1009.1 |
| 20260901134157 | 53 | 123 | 0.0 | 0.0 | 0.00 | 0.00 | 0.00 | 77 | 1009.0 |
| 20260901133656 | 53 | 129 | 0.0 | 1.0 | 0.00 | 0.00 | 0.00 | 77 | 1008.9 |
| 20260901133155 | 53 | 106 | 1.0 | 1.0 | 0.00 | 0.00 | 0.00 | 76 | 1008.8 |
| 20260901132654 | 53 | 96 | 2.0 | 2.0 | 0.00 | 0.00 | 0.00 | 75 | 1008.8 |
| 20260901132150 | 53 | 82 | 2.0 | 2.0 | 0.00 | 0.00 | 0.00 | 74 | 1008.9 |
| 20260901131650 | 54 | 94 | 2.0 | 2.0 | 0.00 | 0.00 | 0.00 | 72 | 1008.6 |
| 20260901131149 | 53 | 112 | 1.0 | 1.0 | 0.00 | 0.00 | 0.00 | 72 | 1008.9 |
| 20260901130644 | 52 | 103 | 1.0 | 1.0 | 0.00 | 0.00 | 0.00 | 75 | 1008.8 |
| 20260901130143 | 52 | 112 | 0.0 | 1.0 | 0.00 | 0.00 | 0.00 | 76 | 1008.9 |
| 20260901125641 | 52 | 101 | 1.0 | 1.0 | 0.00 | 0.00 | 0.00 | 75 | 1009.0 |
| 20260901125137 | 53 | 90 | 2.0 | 2.0 | 0.00 | 0.00 | 0.00 | 72 | 1009.0 |
| 20260901124632 | 55 | 84 | 2.0 | 2.0 | 0.00 | 0.00 | 0.00 | 69 | 1008.7 |
| 20260901124131 | 55 | 99 | 2.0 | 2.0 | 0.00 | 0.00 | 0.00 | 68 | 1008.9 |
| 20260901123626 | 55 | 96 | 3.0 | 3.0 | 0.00 | 0.00 | 0.00 | 68 | 1008.9 |
| 20260901123125 | 55 | 126 | 3.0 | 3.0 | 0.00 | 0.00 | 0.00 | 68 | 1009.0 |
| 20260901122624 | 55 | 111 | 4.0 | 5.0 | 0.00 | 0.00 | 0.00 | 69 | 1008.9 |
| 20260901122119 | 55 | 114 | 3.0 | 5.0 | 0.00 | 0.00 | 0.00 | 68 | 1008.9 |
| 20260901121614 | 55 | 140 | 5.0 | 6.0 | 0.00 | 0.00 | 0.00 | 67 | 1009.0 |
| 20260901121109 | 55 | 128 | 6.0 | 7.0 | 0.00 | 0.00 | 0.00 | 66 | 1008.8 |
| 20260901120603 | 55 | 115 | 6.0 | 8.0 | 0.00 | 0.00 | 0.00 | 67 | 1008.9 |
| 20260901120058 | 54 | 113 | 5.0 | 6.0 | 0.00 | 0.00 | 0.00 | 68 | 1008.9 |
| 20260901115553 | 53 | 123 | 2.0 | 2.0 | 0.00 | 0.00 | 0.00 | 70 | 1009.1 |
| 20260901115050 | 51 | 120 | 1.0 | 1.0 | 0.00 | 0.00 | 0.00 | 73 | 1008.8 |
| 20260901114546 | 50 | 117 | 1.0 | 1.0 | 0.00 | 0.00 | 0.00 | 77 | 1008.9 |
| 20260901114045 | 49 | 115 | 0.0 | 1.0 | 0.00 | 0.00 | 0.00 | 79 | 1008.9 |
| 20260901113544 | 49 | 126 | 0.0 | 0.0 | 0.00 | 0.00 | 0.00 | 78 | 1009.2 |
| 20260901113039 | 50 | 136 | 0.0 | 1.0 | 0.00 | 0.00 | 0.00 | 78 | 1009.1 |
| 20260901112533 | 50 | 119 | 1.0 | 1.0 | 0.00 | 0.00 | 0.00 | 76 | 1009.0 |
| 20260901112028 | 51 | 130 | 0.0 | 0.0 | 0.00 | 0.00 | 0.00 | 76 | 1009.0 |
| 20260901111527 | 51 | 130 | 0.0 | 0.0 | 0.00 | 0.00 | 0.00 | 75 | 1008.9 |
| 20260901111025 | 52 | 127 | 0.0 | 0.0 | 0.00 | 0.00 | 0.00 | 74 | 1009.2 |
| 20260901110521 | 53 | 138 | 0.0 | 0.0 | 0.00 | 0.00 | 0.00 | 72 | 1009.2 |
| 20260901110017 | 53 | 138 | 0.0 | 0.0 | 0.00 | 0.00 | 0.00 | 70 | 1009.1 |
| 20260901105513 | 54 | 138 | 0.0 | 0.0 | 0.00 | 0.00 | 0.00 | 69 | 1009.1 |
| 20260901105012 | 54 | 165 | 2.0 | 2.0 | 0.00 | 0.00 | 0.00 | 68 | 1009.1 |
| 20260901104509 | 54 | 154 | 1.0 | 2.0 | 0.00 | 0.00 | 0.00 | 68 | 1009.3 |
| 20260901104003 | 54 | 132 | 1.0 | 2.0 | 0.00 | 0.00 | 0.00 | 68 | 1009.1 |
| 20260901103458 | 55 | 159 | 1.0 | 2.0 | 0.00 | 0.00 | 0.00 | 68 | 1009.1 |
| 20260901102954 | 55 | 144 | 2.0 | 3.0 | 0.00 | 0.00 | 0.00 | 66 | 1008.9 |
| 20260901102448 | 56 | 153 | 5.0 | 6.0 | 0.00 | 0.00 | 0.00 | 65 | 1009.1 |
| 20260901101942 | 57 | 125 | 4.0 | 5.0 | 0.00 | 0.00 | 0.00 | 62 | 1009.1 |
| 20260901101438 | 57 | 151 | 3.0 | 5.0 | 0.00 | 0.00 | 0.00 | 62 | 1009.2 |
| 20260901100932 | 57 | 120 | 5.0 | 7.0 | 0.00 | 0.00 | 0.00 | 62 | 1009.3 |
| 20260901100427 | 57 | 125 | 5.0 | 6.0 | 0.00 | 0.00 | 0.00 | 62 | 1009.3 |
| 20260901095926 | 57 | 122 | 5.0 | 6.0 | 0.00 | 0.00 | 0.00 | 63 | 1009.3 |
| 20260901095425 | 56 | 125 | 4.0 | 5.0 | 0.00 | 0.00 | 0.00 | 64 | 1009.0 |
| 20260901094918 | 56 | 131 | 2.0 | 2.0 | 0.00 | 0.00 | 0.00 | 64 | 1009.3 |
| 20260901094418 | 56 | 133 | 3.0 | 3.0 | 0.00 | 0.00 | 0.00 | 65 | 1009.2 |
| 20260901093912 | 56 | 135 | 1.0 | 1.0 | 0.00 | 0.00 | 0.00 | 65 | 1009.3 |
| 20260901093412 | 56 | 121 | 3.0 | 3.0 | 0.00 | 0.00 | 0.00 | 64 | 1009.2 |
| 20260901092907 | 56 | 134 | 1.0 | 1.0 | 0.00 | 0.00 | 0.00 | 65 | 1009.1 |
| 20260901092403 | 56 | 129 | 1.0 | 1.0 | 0.00 | 0.00 | 0.00 | 64 | 1009.3 |
| 20260901091859 | 57 | 118 | 3.0 | 3.0 | 0.00 | 0.00 | 0.00 | 64 | 1009.0 |
| 20260901091358 | 57 | 121 | 1.0 | 1.0 | 0.00 | 0.00 | 0.00 | 64 | 1009.2 |
| 20260901090853 | 57 | 112 | 2.0 | 2.0 | 0.00 | 0.00 | 0.00 | 63 | 1009.1 |
| 20260901090348 | 57 | 120 | 3.0 | 3.0 | 0.00 | 0.00 | 0.00 | 62 | 1009.1 |
| 20260901085844 | 58 | 103 | 5.0 | 6.0 | 0.00 | 0.00 | 0.00 | 61 | 1009.3 |
| 20260901085339 | 59 | 132 | 5.0 | 6.0 | 0.00 | 0.00 | 0.00 | 59 | 1009.2 |
| 20260901084836 | 59 | 136 | 5.0 | 5.0 | 0.00 | 0.00 | 0.00 | 60 | 1009.5 |
| 20260901084331 | 59 | 119 | 5.0 | 6.0 | 0.00 | 0.00 | 0.00 | 60 | 1009.2 |
| 20260901083826 | 59 | 117 | 6.0 | 7.0 | 0.00 | 0.00 | 0.00 | 60 | 1009.2 |
| 20260901083321 | 58 | 120 | 6.0 | 7.0 | 0.00 | 0.00 | 0.00 | 61 | 1009.1 |
| 20260901082819 | 56 | 109 | 5.0 | 7.0 | 0.00 | 0.00 | 0.00 | 63 | 1009.3 |
| 20260901082315 | 54 | 126 | 1.0 | 1.0 | 0.00 | 0.00 | 0.00 | 68 | 1009.5 |
| 20260901081810 | 54 | 122 | 0.0 | 0.0 | 0.00 | 0.00 | 0.00 | 71 | 1009.2 |
| 20260901081309 | 55 | 111 | 0.0 | 0.0 | 0.00 | 0.00 | 0.00 | 68 | 1009.4 |
| 20260901080805 | 54 | 120 | 0.0 | 1.0 | 0.00 | 0.00 | 0.00 | 68 | 1009.3 |
| 20260901080305 | 54 | 125 | 0.0 | 0.0 | 0.00 | 0.00 | 0.00 | 69 | 1009.5 |
| 20260901075758 | 54 | 131 | 0.0 | 0.0 | 0.00 | 0.00 | 0.00 | 69 | 1009.5 |
| 20260901075253 | 55 | 131 | 0.0 | 0.0 | 0.00 | 0.00 | 0.00 | 67 | 1009.6 |
| 20260901074748 | 55 | 131 | 0.0 | 0.0 | 0.00 | 0.00 | 0.00 | 68 | 1009.9 |
| 20260901074243 | 55 | 130 | 0.0 | 0.0 | 0.00 | 0.00 | 0.00 | 66 | 1009.8 |
| 20260901073739 | 55 | 131 | 0.0 | 1.0 | 0.00 | 0.00 | 0.00 | 66 | 1009.9 |
| 20260901073234 | 56 | 132 | 0.0 | 0.0 | 0.00 | 0.00 | 0.00 | 66 | 1009.8 |
| 20260901072729 | 56 | 150 | 2.0 | 2.0 | 0.00 | 0.00 | 0.00 | 64 | 1010.0 |
| 20260901072224 | 57 | 138 | 0.0 | 0.0 | 0.00 | 0.00 | 0.00 | 64 | 1010.1 |
| 20260901071719 | 57 | 138 | 0.0 | 0.0 | 0.00 | 0.00 | 0.00 | 63 | 1010.0 |
| 20260901071219 | 57 | 127 | 0.0 | 1.0 | 0.00 | 0.00 | 0.00 | 63 | 1009.8 |
| 20260901070712 | 57 | 119 | 0.0 | 1.0 | 0.00 | 0.00 | 0.00 | 63 | 1009.9 |
| 20260901070208 | 57 | 125 | 0.0 | 0.0 | 0.00 | 0.00 | 0.00 | 63 | 1009.8 |
| 20260901065707 | 56 | 93 | 1.0 | 1.0 | 0.00 | 0.00 | 0.00 | 63 | 1009.8 |
| 20260901065202 | 57 | 118 | 0.0 | 0.0 | 0.00 | 0.00 | 0.00 | 63 | 1009.8 |
| 20260901064659 | 57 | 118 | 1.0 | 1.0 | 0.00 | 0.00 | 0.00 | 61 | 1009.6 |
| 20260901064155 | 57 | 128 | 1.0 | 1.0 | 0.00 | 0.00 | 0.00 | 61 | 1010.0 |
| 20260901063652 | 58 | 138 | 1.0 | 1.0 | 0.00 | 0.00 | 0.00 | 60 | 1009.5 |
| 20260901063147 | 57 | 127 | 0.0 | 0.0 | 0.00 | 0.00 | 0.00 | 61 | 1009.5 |
| 20260901062643 | 58 | 104 | 1.0 | 2.0 | 0.00 | 0.00 | 0.00 | 61 | 1009.8 |
| 20260901062139 | 58 | 119 | 0.0 | 1.0 | 0.00 | 0.00 | 0.00 | 60 | 1009.6 |
| 20260901061635 | 58 | 123 | 1.0 | 1.0 | 0.00 | 0.00 | 0.00 | 60 | 1009.9 |
| 20260901061134 | 58 | 129 | 0.0 | 0.0 | 0.00 | 0.00 | 0.00 | 60 | 1010.0 |
| 20260901060629 | 58 | 130 | 0.0 | 0.0 | 0.00 | 0.00 | 0.00 | 60 | 1010.0 |
| 20260901060125 | 59 | 122 | 2.0 | 2.0 | 0.00 | 0.00 | 0.00 | 59 | 1010.0 |
| 20260901055620 | 59 | 118 | 1.0 | 1.0 | 0.00 | 0.00 | 0.00 | 58 | 1009.8 |
| 20260901055116 | 59 | 140 | 1.0 | 1.0 | 0.00 | 0.00 | 0.00 | 58 | 1010.0 |
| 20260901054613 | 58 | 122 | 2.0 | 2.0 | 0.00 | 0.00 | 0.00 | 58 | 1009.6 |
| 20260901054109 | 58 | 138 | 0.0 | 0.0 | 0.00 | 0.00 | 0.00 | 59 | 1010.2 |
| 20260901053605 | 59 | 121 | 0.0 | 0.0 | 0.00 | 0.00 | 0.00 | 58 | 1010.1 |
| 20260901053101 | 59 | 125 | 0.0 | 0.0 | 0.00 | 0.00 | 0.00 | 57 | 1010.1 |
| 20260901052600 | 59 | 128 | 1.0 | 1.0 | 0.00 | 0.00 | 0.00 | 56 | 1009.9 |
| 20260901052055 | 60 | 129 | 3.0 | 3.0 | 0.00 | 0.00 | 0.00 | 55 | 1010.1 |
| 20260901051550 | 60 | 158 | 3.0 | 3.0 | 0.00 | 0.00 | 0.00 | 55 | 1010.1 |
| 20260901051049 | 60 | 139 | 0.0 | 1.0 | 0.00 | 0.00 | 0.00 | 55 | 1010.1 |
| 20260901050544 | 60 | 102 | 4.0 | 5.0 | 0.00 | 0.00 | 0.00 | 54 | 1010.1 |
| 20260901050039 | 59 | 123 | 4.0 | 5.0 | 0.00 | 0.00 | 0.00 | 55 | 1010.3 |
| 20260901045534 | 58 | 110 | 3.0 | 3.0 | 0.00 | 0.00 | 0.00 | 58 | 1010.1 |
| 20260901045029 | 58 | 137 | 2.0 | 3.0 | 0.00 | 0.00 | 0.00 | 58 | 1010.2 |
| 20260901044525 | 58 | 135 | 1.0 | 2.0 | 0.00 | 0.00 | 0.00 | 58 | 1010.3 |
| 20260901044020 | 58 | 144 | 3.0 | 3.0 | 0.00 | 0.00 | 0.00 | 58 | 1010.4 |
| 20260901043516 | 59 | 131 | 3.0 | 3.0 | 0.00 | 0.00 | 0.00 | 58 | 1010.3 |
| 20260901043011 | 61 | 193 | 3.0 | 3.0 | 0.00 | 0.00 | 0.00 | 56 | 1010.4 |
| 20260901042511 | 63 | 179 | 5.0 | 6.0 | 0.00 | 0.00 | 0.00 | 53 | 1010.5 |
| 20260901042006 | 65 | 140 | 7.0 | 9.0 | 0.00 | 0.00 | 0.00 | 47 | 1010.1 |
| 20260901041501 | 64 | 115 | 7.0 | 7.0 | 0.00 | 0.00 | 0.00 | 47 | 1010.3 |
| 20260901040955 | 64 | 106 | 6.0 | 7.0 | 0.00 | 0.00 | 0.00 | 47 | 1010.0 |
| 20260901040450 | 64 | 121 | 5.0 | 5.0 | 0.00 | 0.00 | 0.00 | 48 | 1009.9 |
| 20260901035949 | 64 | 112 | 4.0 | 5.0 | 0.00 | 0.00 | 0.00 | 48 | 1010.0 |
| 20260901035448 | 64 | 121 | 5.0 | 6.0 | 0.00 | 0.00 | 0.00 | 48 | 1010.0 |
| 20260901034946 | 64 | 100 | 6.0 | 7.0 | 0.00 | 0.00 | 0.00 | 48 | 1009.9 |
| 20260901034441 | 64 | 105 | 3.0 | 3.0 | 0.00 | 0.00 | 0.00 | 50 | 1010.0 |
| 20260901033936 | 64 | 115 | 5.0 | 6.0 | 0.00 | 0.00 | 0.00 | 49 | 1010.0 |
| 20260901033435 | 64 | 116 | 5.0 | 6.0 | 0.00 | 0.00 | 0.00 | 49 | 1010.0 |
| 20260901032933 | 64 | 95 | 4.0 | 5.0 | 0.00 | 0.00 | 0.00 | 49 | 1009.9 |
| 20260901032428 | 65 | 118 | 4.0 | 5.0 | 0.00 | 0.00 | 0.00 | 49 | 1009.8 |
| 20260901031923 | 65 | 111 | 5.0 | 8.0 | 0.00 | 0.00 | 0.00 | 48 | 1009.8 |
| 20260901031419 | 65 | 106 | 6.0 | 8.0 | 0.00 | 0.00 | 0.00 | 47 | 1010.0 |
| 20260901030918 | 65 | 112 | 6.0 | 7.0 | 0.00 | 0.00 | 0.00 | 47 | 1009.9 |
| 20260901030414 | 65 | 108 | 5.0 | 6.0 | 0.00 | 0.00 | 0.00 | 48 | 1009.6 |
| 20260901025912 | 66 | 92 | 5.0 | 6.0 | 0.00 | 0.00 | 0.00 | 48 | 1009.5 |
| 20260901025408 | 65 | 96 | 6.0 | 7.0 | 0.00 | 0.00 | 0.00 | 47 | 1009.4 |
| 20260901024857 | 66 | 101 | 3.0 | 3.0 | 0.00 | 0.00 | 0.00 | 47 | 1009.4 |
| 20260901024356 | 66 | 100 | 4.0 | 6.0 | 0.00 | 0.00 | 0.00 | 46 | 1009.6 |
| 20260901023854 | 66 | 87 | 3.0 | 3.0 | 0.00 | 0.00 | 0.00 | 48 | 1009.4 |
| 20260901023350 | 67 | 104 | 5.0 | 6.0 | 0.00 | 0.00 | 0.00 | 46 | 1009.5 |
| 20260901022844 | 68 | 106 | 3.0 | 3.0 | 0.00 | 0.00 | 0.00 | 46 | 1009.4 |
| 20260901022340 | 68 | 102 | 5.0 | 6.0 | 0.00 | 0.00 | 0.00 | 42 | 1009.3 |
| 20260901021836 | 67 | 99 | 3.0 | 3.0 | 0.00 | 0.00 | 0.00 | 47 | 1009.1 |
| 20260901021331 | 68 | 92 | 3.0 | 5.0 | 0.00 | 0.00 | 0.00 | 45 | 1009.4 |
| 20260901020826 | 69 | 84 | 3.0 | 3.0 | 0.00 | 0.00 | 0.00 | 44 | 1009.2 |
| 20260901020321 | 70 | 80 | 3.0 | 3.0 | 0.00 | 0.00 | 0.00 | 43 | 1009.5 |
| 20260901015815 | 71 | 104 | 3.0 | 3.0 | 0.00 | 0.00 | 0.00 | 40 | 1009.8 |
| 20260901015312 | 71 | 116 | 2.0 | 2.0 | 0.00 | 0.00 | 0.00 | 41 | 1009.8 |
| 20260901014811 | 72 | 117 | 2.0 | 2.0 | 0.00 | 0.00 | 0.00 | 39 | 1009.3 |
| 20260901014307 | 73 | 125 | 1.0 | 1.0 | 0.00 | 0.00 | 0.00 | 41 | 1009.5 |
| 20260901013802 | 73 | 119 | 1.0 | 1.0 | 0.00 | 0.00 | 0.00 | 38 | 1009.6 |
| 20260901013258 | 73 | 115 | 2.0 | 2.0 | 0.00 | 0.00 | 0.00 | 37 | 1009.6 |
| 20260901012753 | 74 | 118 | 1.0 | 1.0 | 0.00 | 0.00 | 0.00 | 37 | 1009.6 |
| 20260901012253 | 74 | 127 | 1.0 | 1.0 | 0.00 | 0.00 | 0.00 | 37 | 1009.6 |
| 20260901011749 | 74 | 121 | 1.0 | 2.0 | 0.00 | 0.00 | 0.00 | 35 | 1009.5 |
| 20260901011244 | 74 | 132 | 2.0 | 2.0 | 0.00 | 0.00 | 0.00 | 35 | 1009.8 |
| 20260901010738 | 74 | 127 | 1.0 | 2.0 | 0.00 | 0.00 | 0.00 | 36 | 1009.8 |
| 20260901010233 | 74 | 144 | 2.0 | 2.0 | 0.00 | 0.00 | 0.00 | 36 | 1009.6 |
| 20260901005731 | 74 | 117 | 3.0 | 3.0 | 0.00 | 0.00 | 0.00 | 36 | 1009.5 |